Location: Unspecified
(0.0000°N, 0.0000°E)
Time: 18:49:43
(UTC+00:00)

JUGNU - Visible Passes

Search period start: 19 August 2019 00:00
Search period end: 29 August 2019 00:00
Orbit: 837 x 864 km, 20.0° (Epoch: 18 August)

Date Brightness Start Highest point End Pass type
(mag) Time Alt. Az. Time Alt. Az. Time Alt. Az.
19 Aug ? 04:32:27 10° NNW 04:33:58 11° N 04:35:29 10° N visible
19 Aug ? 19:09:09 10° SSW 19:11:44 13° S 19:13:13 12° SSE visible
20 Aug ? 04:17:51 10° NNW 04:18:57 10° N 04:20:02 10° N visible
20 Aug ? 18:53:47 10° SSW 18:56:41 14° SSE 18:59:14 11° SE visible
21 Aug ? 04:03:27 10° N 04:03:55 10° N 04:04:25 10° N visible
21 Aug ? 18:38:25 10° SSW 18:41:39 15° SSE 18:44:52 10° SE visible
21 Aug ? 20:25:57 10° SW 20:27:09 15° SW 20:27:09 15° SW visible
22 Aug ? 05:36:57 10° NNW 05:39:07 12° N 05:41:17 10° NNE visible
22 Aug ? 18:23:04 10° SSW 18:26:36 16° SSE 18:30:06 10° SE visible
22 Aug ? 20:10:41 10° SW 20:13:15 23° SSW 20:13:15 23° SSW visible
23 Aug ? 05:21:34 10° NNW 05:24:05 13° N 05:26:35 10° NE visible
23 Aug ? 19:55:26 10° SW 19:59:23 34° SSW 19:59:23 34° SSW visible
24 Aug ? 05:06:13 10° NNW 05:09:02 13° N 05:11:51 10° NE visible
24 Aug ? 19:40:12 10° SW 19:45:34 45° SSE 19:45:34 45° SSE visible
25 Aug ? 04:50:51 10° NNW 04:53:59 14° NNE 04:57:06 10° NE visible
25 Aug ? 19:24:58 10° SW 19:30:39 51° SSE 19:31:46 45° ESE visible
26 Aug ? 04:35:31 10° NNW 04:38:55 15° NNE 04:42:20 10° NE visible
26 Aug ? 19:09:46 10° WSW 19:15:32 58° SSE 19:18:00 33° E visible
26 Aug ? 20:58:54 10° W 20:59:53 15° W 20:59:53 15° W visible
27 Aug ? 04:20:11 10° NNW 04:23:51 17° NNE 04:27:33 10° NE visible
27 Aug ? 18:54:34 10° WSW 19:00:24 65° SSE 19:04:15 22° E visible
27 Aug ? 20:43:51 10° W 20:46:08 23° W 20:46:08 23° W visible
28 Aug ? 04:06:17 14° NNW 04:08:47 18° NNE 04:12:43 10° ENE visible
28 Aug ? 18:39:22 10° WSW 18:45:16 74° SSE 18:50:30 13° ENE visible
28 Aug ? 20:28:50 10° W 20:32:22 31° WNW 20:32:22 31° WNW visible
